• Join FlightAware (Why Join?)
  • Login
  • US Flag GB Flag 
16:21 EDT


 

Airport Tracker/Info


-or-


 

Live Flight TrackerFlight Track Log ✈ CTL78 ✈ 19-Jul-2013 ✈ KYIP - KBKL

Flight Track Log - Related Links

Times and Time Zones

All times are in EDT time to prevent confusion due to time zone crossing. See the CTL78 flight status page for this flight to view local times or setup timezone preferences in your user account.

Time Position Orientation Groundspeed Altitude Reporting Facility
EDT Latitude Longitude Course Direction KTS MPH feet Rate Location/Type
22:09 42.1831 -83.6011 218° Southwest 120 138 2,600  Level Cleveland Center
22:10 42.1458 -83.5883 166° South 151 174 3,000 180 Climbing Cleveland Center
22:11 42.1128 -83.5756 164° South 152 175 3,000  Level Cleveland Center
22:12 42.0714 -83.5622 167° South 150 173 3,100 -60 Climbing Cleveland Center
22:13 42.0239 -83.5433 164° South 154 177 2,900  Descending Cleveland Center
22:14 41.9825 -83.5331 170° South 146 168 3,100 240 Climbing Cleveland Center
22:15 41.9542 -83.5011 140° Southeast 165 190 3,400 300 Climbing Cleveland Center
22:16 41.9303 -83.4497 122° Southeast 153 176 3,700 240 Climbing Cleveland Center
22:17 41.9089 -83.3872 115° Southeast 171 197 4,000 180 Climbing Cleveland Center
22:18 41.8917 -83.3308 112° Southeast 170 196 4,200 240 Climbing Cleveland Center
22:19 41.8764 -83.2689 108° East 172 198 4,500 300 Climbing Cleveland Center
22:20 41.8653 -83.2097 104° East 167 192 4,900 240 Climbing Cleveland Center
22:21 41.8500 -83.1450 108° East 170 196 5,100 120 Climbing Cleveland Center
22:22 41.8369 -83.0775 105° East 175 201 5,200  Climbing Cleveland Center
22:23 41.8214 -83.0211 110° East 204 235 5,100 -120 Descending Cleveland Center
22:24 41.7925 -82.9142 110° East 206 237 5,000 -60 Descending Cleveland Center
22:25 41.7792 -82.8414 104° East 203 234 5,000  Level Cleveland Center
22:26 41.7597 -82.7711 110° East 197 227 5,000  Level Cleveland Center
22:28 41.7386 -82.6842 108° East 190 219 5,000  Level Cleveland Center
22:29 41.7272 -82.6197 103° East 192 221 5,000 -180 Level Cleveland Center
22:30 41.7075 -82.5442 109° East 194 223 4,700 -360 Descending Cleveland Center
22:31 41.6939 -82.4936 110° East 204 235 4,400 -480 Descending Cleveland Center
22:32 41.6722 -82.4122 110° East 205 236 3,900 -240 Descending Cleveland Center
22:33 41.6567 -82.3453 107° East 186 214 3,900  Level Cleveland Center
22:34 41.6431 -82.2781 105° East 186 214 3,900  Level Cleveland Center
22:35 41.6272 -82.2164 109° East 186 214 3,900  Level Cleveland Center
22:37 41.6000 -82.0825 105° East 184 212 4,000 -180 Climbing Cleveland Center
22:38 41.5822 -82.0072 107° East 199 229 3,400 -420 Descending Cleveland Center
22:39 41.5664 -81.9319 106° East 206 237 3,200 -300 Descending Cleveland Center
22:40 41.5589 -81.8569 98° East 201 231 2,900 -300 Descending Cleveland Center
22:41 41.5514 -81.7844 98° East 193 222 2,700 -420 Descending Cleveland Center
22:42 41.5458 -81.7150 96° East 152 175 2,100 -600 Descending Cleveland Center
22:43 41.5400 -81.6650 99° East 130 150 1,500 -600 Descending Cleveland Center
22:45 41.5167 -81.6667 111° Southeast  Level FlightAware Approximate
22:52 41.5175 -81.6833 111° Southeast  Level Estimated